Location: Vlissingen
(51.4500°N, 3.5830°E)
Time: 11:49:36
(UTC+02:00)

Envisat - Pass Details

Date: 31 May 2024
Orbit: 762 x 764 km, 98.3° (Epoch: 13 June)

Event Time Altitude Azimuth Distance (km) Brightness Sun altitude
Rises 03:29:45 0° 30° (NNE) 3,239 8.3 -13.0°
Reaches altitude 10° 03:33:41 10° 61° (ENE) 2,306 6.4 -12.7°
Maximum altitude 03:35:38 12° 84° (E) 2,159 5.8 -12.6°
Drops below altitude 10° 03:37:34 10° 107° (ESE) 2,299 5.6 -12.4°
Sets 03:41:28 0° 137° (SE) 3,217 6.0 -12.1°
